Wind_Speed
84 82 80 77 75 74 73 71 70 69 68 66 64 63 61 60 59 58 58 57 56 55 55 54 54 54 54 54 54 53 53 53 53 53 53 53 52 51 50 49 48 47 45 45 44 43 43 43 42 41 41 40 39 38 37 36 36 36 36 36 36 36 36 37 37 38 39 41 43 45 47 49 52 54 56 57 59 61 63 65 67 68 69 70 71 71
82 80 78 75 74 72 71 70 69 67 66 64 63 62 60 59 59 58 57 56 55 55 54 54 54 54 54 54 54 54 54 54 54 54 53 53 52 51 50 49 48 47 46 44 43 42 42 42 42 41 41 41 40 39 39 38 38 38 38 38 37 38 38 38 39 40 41 42 43 45 47 49 51 54 56 57 59 61 63 64 66 67 68 69 70 71
80 78 76 74 72 71 70 69 67 66 64 63 62 60 59 59 58 57 56 56 55 55 54 54 54 54 54 54 54 54 54 54 54 54 54 53 53 52 51 50 49 48 46 45 43 42 41 41 41 41 41 41 41 41 40 40 40 40 40 40 40 39 39 39 40 41 42 43 44 46 48 50 52 54 56 58 59 61 63 64 66 67 69 70 70 71
78 76 74 72 71 69 68 67 66 65 63 62 60 59 59 58 57 56 56 55 55 55 54 54 54 54 54 54 54 54 54 54 54 54 54 54 53 53 52 51 50 49 47 46 45 43 42 41 40 40 40 40 41 41 41 42 42 42 42 42 42 42 42 42 42 42 42 43 45 46 48 50 52 54 56 58 59 61 63 64 66 67 69 70 71 72
76 74 73 71 70 68 67 66 64 63 62 60 59 58 58 57 57 56 55 55 55 55 55 55 55 55 55 55 54 54 54 54 54 54 54 54 54 53 52 52 51 50 48 47 46 45 44 42 42 41 40 40 41 41 41 42 43 43 44 44 44 45 45 45 45 44 44 45 45 46 48 50 52 54 56 58 60 61 63 64 66 67 69 70 71 72
74 73 71 70 68 67 66 65 63 62 61 59 58 58 57 56 56 55 55 55 55 55 55 55 55 55 55 55 55 55 54 54 54 54 54 54 54 54 53 52 52 51 49 48 47 46 45 44 43 43 42 42 42 42 42 42 43 44 45 45 46 47 47 48 48 48 48 48 48 48 49 50 51 54 56 58 60 61 63 65 66 67 69 70 71 73
73 72 70 68 67 66 64 63 62 60 59 58 58 57 56 56 55 55 55 55 55 55 55 55 55 55 55 55 55 55 55 54 54 55 54 54 54 54 54 53 52 51 50 49 48 48 47 46 45 45 44 44 44 44 44 44 44 45 45 46 47 48 49 50 51 51 52 52 52 51 51 51 52 53 55 57 59 61 63 64 66 68 69 70 71 73
72 71 69 67 66 65 63 62 60 59 58 57 57 56 56 56 55 55 55 55 55 55 56 56 56 56 55 55 55 55 55 55 55 55 55 55 55 55 54 54 53 52 51 50 49 49 48 47 47 47 46 46 46 46 46 46 47 47 47 48 49 50 50 51 52 53 54 55 55 55 55 55 55 55 56 57 58 60 62 64 65 67 69 70 72 73
71 70 68 66 65 63 62 61 60 58 57 57 56 56 56 55 55 55 55 55 55 55 56 56 56 56 56 56 55 55 55 55 55 55 55 55 55 55 55 55 54 53 52 51 50 49 49 48 48 48 48 48 48 49 49 49 50 50 50 51 52 52 53 54 54 55 56 57 58 59 59 59 59 59 59 59 59 60 61 63 64 66 67 69 71 72
70 68 67 65 63 62 61 60 59 58 57 56 56 55 55 55 55 55 55 55 55 56 56 56 57 57 57 56 56 56 56 56 55 55 56 56 56 56 56 55 55 54 53 52 51 50 50 49 49 49 49 50 50 51 51 52 52 53 54 54 55 55 56 57 57 58 59 59 60 61 62 62 62 63 62 62 63 63 63 64 64 65 66 68 69 71
69 67 65 64 62 61 60 59 58 57 56 56 55 55 55 55 54 55 55 56 56 56 56 56 57 57 57 57 57 56 56 56 56 56 56 57 57 57 57 56 56 55 54 53 52 51 51 50 50 50 51 51 52 52 53 53 54 55 56 57 58 58 59 60 61 61 62 62 63 63 64 64 65 65 65 66 66 66 66 66 66 67 67 68 69 70
67 66 64 63 61 60 59 58 57 56 56 55 55 55 55 55 54 55 55 56 56 57 57 57 57 57 57 57 57 57 57 57 57 57 57 57 58 58 58 58 57 56 55 54 53 53 52 52 51 51 52 52 53 53 54 55 56 57 58 59 60 61 62 63 64 64 65 65 66 66 67 67 67 67 68 68 68 68 68 69 69 69 69 69 70 70
66 64 63 61 60 59 58 57 57 56 56 55 55 55 55 55 55 55 55 56 56 57 57 58 58 58 57 58 58 58 58 58 58 58 58 58 59 59 59 59 58 57 56 56 55 54 54 53 53 53 53 54 54 55 56 57 57 58 59 60 62 63 64 65 66 66 67 68 68 69 69 69 69 69 70 70 70 70 70 71 71 71 71 71 72 72
65 63 62 60 59 58 57 57 56 56 56 55 55 55 55 55 55 55 56 56 57 57 57 58 58 58 58 58 58 58 59 59 59 59 59 59 60 60 60 60 59 58 58 57 57 56 56 55 55 55 55 55 56 56 57 58 59 60 61 62 63 64 66 66 67 68 69 69 70 70 71 71 71 71 71 71 71 72 72 72 72 73 73 73 73 74
63 62 60 59 58 57 56 56 56 56 56 55 55 55 55 55 55 55 56 56 57 57 58 58 58 58 58 58 58 59 59 60 60 60 60 60 60 60 61 61 61 60 59 59 58 58 58 58 58 58 57 57 58 58 59 60 61 62 63 64 65 66 67 68 69 69 70 70 71 71 72 72 72 72 72 72 72 73 73 73 73 74 74 74 75 75
61 60 59 58 57 56 56 55 55 55 55 55 55 55 55 55 55 55 56 57 57 58 58 58 59 59 59 59 59 59 60 60 61 61 61 61 61 61 61 62 62 61 60 60 60 60 60 60 60 60 59 60 60 60 61 62 63 64 65 66 67 68 68 69 69 70 71 71 71 72 72 72 72 72 72 73 73 73 73 73 74 74 74 75 75 76
60 59 58 57 56 56 55 55 55 55 55 55 55 55 55 55 55 56 56 57 57 58 58 59 59 60 60 60 60 60 60 61 62 62 62 62 62 62 62 62 63 63 62 62 62 62 62 62 62 62 61 61 62 62 63 64 65 66 67 68 68 69 69 70 70 70 71 71 71 71 71 72 72 72 72 72 72 73 73 73 73 74 74 75 75 76
58 57 56 56 55 55 55 55 55 55 55 55 55 55 55 55 55 56 56 57 58 58 59 59 59 60 61 61 61 61 61 62 62 63 63 63 63 63 63 63 64 64 64 64 64 64 64 64 64 64 63 63 64 64 65 66 67 68 68 69 69 70 70 70 70 70 70 70 70 70 70 70 71 71 71 71 71 71 72 72 73 73 74 74 75 75
57 56 55 55 55 55 54 55 55 55 55 55 55 55 55 56 56 56 57 57 58 58 59 59 60 60 61 62 62 62 62 62 63 64 64 64 64 64 64 65 65 65 66 66 66 66 66 66 65 65 65 66 66 67 67 68 68 69 69 70 70 70 70 70 70 69 69 69 69 69 69 69 69 69 69 69 70 70 70 71 72 72 73 73 74 74
56 55 54 54 54 54 54 54 54 54 55 55 55 55 56 56 56 57 57 57 58 58 59 60 60 61 61 62 63 63 63 63 64 64 65 65 65 65 65 66 67 67 67 67 67 67 67 67 67 67 67 68 68 69 69 70 70 70 70 70 70 70 70 69 69 68 68 67 67 67 67 67 67 67 68 68 68 69 69 70 70 71 71 72 73 73
55 54 54 54 54 54 54 54 54 54 55 55 55 56 56 56 57 57 57 58 58 59 59 60 61 61 62 62 63 63 64 64 65 65 66 66 66 66 67 67 68 69 69 69 69 69 69 69 69 69 69 70 70 71 71 71 71 71 71 70 70 69 68 68 67 66 66 66 65 65 65 65 65 65 66 66 67 67 68 68 69 69 70 71 71 72
54 54 54 53 53 53 54 54 54 54 55 55 56 56 57 57 57 57 58 58 59 59 60 60 61 61 62 63 63 64 64 65 65 66 67 67 68 68 68 69 69 70 70 70 70 70 70 70 71 71 71 72 72 72 72 72 72 71 71 70 69 68 67 66 65 65 64 64 63 63 63 63 63 64 64 65 65 66 66 67 68 68 69 69 70 71
53 53 53 53 53 53 53 54 54 55 55 55 56 56 56 57 57 57 58 58 59 60 60 61 61 62 62 63 63 64 65 65 66 67 68 69 69 70 70 70 71 71 71 71 71 71 72 72 72 73 73 73 73 73 73 72 72 71 70 69 68 67 65 64 64 63 62 62 62 62 61 62 62 62 63 63 64 65 65 66 67 67 68 69 69 70
52 53 52 52 53 53 53 54 54 55 55 56 56 56 56 57 57 57 58 58 59 60 61 61 62 62 62 63 64 64 65 66 67 68 69 70 70 71 71 71 72 72 72 72 72 73 73 74 74 74 74 74 74 73 73 72 71 70 69 67 66 65 64 63 62 61 61 60 60 60 60 61 61 61 62 63 63 64 65 66 67 67 68 69 69 70
52 52 52 52 52 53 53 54 54 55 55 56 56 56 57 57 57 57 58 59 59 60 61 61 62 63 63 64 64 65 66 67 68 69 70 71 72 72 72 72 73 73 74 73 73 74 75 75 76 75 75 74 74 73 72 71 70 68 67 66 64 63 62 61 60 60 59 59 59 59 59 60 60 61 62 63 63 64 65 66 67 68 68 69 70 70
52 52 52 52 53 53 53 54 54 55 55 56 56 57 57 57 58 58 59 59 59 60 61 62 62 63 64 64 65 66 67 68 69 70 71 72 73 73 73 73 73 74 75 75 75 75 76 77 77 76 75 74 73 72 71 69 68 67 65 64 63 62 61 60 59 59 58 58 58 58 59 59 60 61 62 63 64 65 65 66 67 68 69 69 70 71
52 52 52 52 53 53 53 54 54 55 55 56 56 57 57 58 58 59 59 59 60 60 61 62 63 64 65 66 66 67 68 69 70 71 72 73 74 74 74 74 74 75 75 76 76 77 77 78 77 77 75 74 72 71 69 68 66 65 64 62 61 60 59 59 58 58 58 58 58 58 59 59 60 61 62 63 64 65 65 66 67 68 69 69 70 71
52 52 52 52 53 53 53 54 54 54 55 56 56 57 57 58 59 59 60 60 60 61 62 63 64 65 66 67 68 69 69 70 71 72 73 74 74 75 75 75 75 76 77 77 77 77 78 78 77 76 75 73 71 69 67 66 65 63 62 61 60 59 59 58 58 58 58 58 58 58 59 59 60 61 62 62 63 64 65 66 66 67 68 69 69 70
52 52 52 52 53 53 53 53 54 54 55 55 56 57 57 58 59 59 60 61 61 62 63 64 65 66 67 68 69 70 70 71 72 73 73 74 75 76 76 76 76 77 77 78 79 78 78 77 76 75 73 71 69 68 66 64 63 62 61 60 59 58 58 58 58 58 58 58 59 59 59 60 60 61 61 62 62 63 63 64 65 65 66 67 68 68
52 52 52 52 53 53 53 53 54 54 55 55 56 56 57 58 58 59 60 61 62 63 64 65 66 67 68 70 71 71 72 72 72 73 74 75 76 77 77 78 78 78 78 79 79 79 78 76 74 73 71 69 68 66 64 63 62 61 60 59 58 58 58 58 58 59 59 59 59 59 60 60 60 60 60 60 61 61 61 62 62 63 64 64 65 66
51 51 52 52 52 53 53 53 54 54 55 55 56 56 57 58 59 60 61 62 63 64 65 66 67 68 69 70 71 72 73 73 73 74 75 76 77 78 78 79 79 79 79 79 79 79 78 76 73 71 69 67 66 64 63 62 61 60 59 59 58 58 58 59 59 59 59 59 59 59 59 59 59 59 59 59 59 59 59 60 60 61 61 62 63 63
51 51 51 51 52 52 53 53 54 54 55 55 56 57 57 58 59 60 61 62 64 65 66 67 68 69 70 71 71 72 73 74 74 75 76 77 78 79 79 80 80 80 79 78 78 78 77 75 73 70 67 65 64 63 62 61 60 60 59 59 59 59 59 59 60 60 60 60 59 59 59 59 58 58 58 58 58 58 58 58 58 59 59 60 61 61
50 50 51 51 52 52 53 53 54 54 55 56 56 57 58 59 60 61 62 63 64 66 67 68 69 70 71 71 72 73 73 74 75 76 77 78 79 80 80 80 80 80 79 78 77 75 74 73 71 68 66 64 62 61 61 60 60 59 59 59 59 59 60 60 60 60 60 60 59 59 58 58 57 57 57 57 57 57 57 57 57 57 58 58 59 59
49 50 50 51 51 52 53 53 54 55 56 56 57 58 59 60 61 62 63 64 65 66 67 68 69 70 71 72 73 73 74 75 75 76 77 79 80 80 81 81 80 79 78 77 76 74 72 71 69 67 65 63 61 60 59 59 59 59 59 59 60 60 60 60 60 60 60 59 59 58 57 57 57 56 56 56 56 56 56 56 56 56 56 57 57 58
49 50 50 51 51 52 53 54 55 55 56 57 58 59 60 61 62 63 64 65 66 67 68 69 69 70 71 73 74 75 75 76 76 77 78 79 80 81 81 81 79 78 77 76 74 73 71 70 68 66 64 63 61 59 58 58 59 59 59 59 60 60 60 60 60 60 59 59 58 57 57 56 56 56 55 55 55 55 55 55 55 55 56 56 56 57
49 49 50 51 52 53 53 54 55 56 57 58 59 60 61 62 63 64 65 66 67 68 69 69 70 71 72 73 74 75 76 77 77 78 79 80 80 81 81 80 78 76 75 74 72 71 70 68 67 65 64 63 61 60 59 58 58 59 59 59 60 60 60 60 60 59 58 58 57 56 56 55 55 55 55 55 55 55 55 55 55 55 55 55 55 56
49 50 51 51 52 53 54 55 56 57 58 59 60 61 61 62 64 65 66 67 68 69 69 70 71 72 72 73 74 75 77 78 78 79 79 80 80 80 80 78 76 74 73 72 71 70 68 67 66 65 64 63 62 61 60 59 58 58 59 59 60 60 59 59 58 58 57 57 56 55 55 55 55 55 55 55 55 55 55 54 54 54 54 54 55 55
50 51 51 52 53 54 55 56 57 57 58 59 60 61 62 63 64 65 67 68 69 69 70 71 72 73 74 74 75 76 77 78 79 79 80 80 80 79 78 77 75 73 71 70 69 68 67 66 65 65 64 63 62 61 61 60 60 59 59 59 59 59 59 58 57 56 56 55 55 54 54 54 54 54 54 54 54 54 54 54 54 54 54 54 54 54
50 51 52 53 53 54 55 56 57 58 59 60 61 62 63 64 65 66 67 68 69 70 71 72 73 74 75 75 76 77 78 79 79 80 80 80 79 78 77 75 73 71 70 69 68 67 66 65 65 64 64 64 63 62 62 61 61 60 60 59 59 58 57 56 56 55 54 53 53 53 52 52 53 53 53 54 54 54 54 54 54 54 54 54 54 53
51 52 53 53 54 55 56 57 58 59 60 61 62 63 64 65 66 67 68 69 70 72 72 73 74 75 75 76 77 78 78 79 79 80 80 79 78 77 75 73 71 70 69 68 67 66 65 64 64 64 64 64 64 63 62 62 61 61 61 60 59 58 56 55 54 53 52 52 51 51 51 51 51 52 52 53 53 53 53 54 54 53 53 53 53 53
52 53 53 54 55 56 57 58 59 60 61 62 63 64 66 67 68 69 70 71 72 73 74 74 75 76 77 77 78 78 79 79 80 80 79 78 77 75 73 72 70 69 68 67 66 65 64 64 64 64 63 63 63 63 63 62 62 61 61 60 59 58 56 54 53 52 51 50 50 50 50 50 50 50 51 51 52 52 52 52 53 53 53 53 53 52
53 54 55 55 56 57 58 59 60 61 62 63 65 66 67 68 69 70 71 72 73 74 75 76 76 77 78 78 78 79 79 79 80 79 79 78 76 74 72 71 69 68 67 67 66 65 64 64 64 64 63 63 64 64 63 63 62 61 61 60 59 57 56 54 52 51 50 49 49 48 48 48 48 49 49 49 50 50 50 51 51 51 51 52 51 51
54 55 56 57 58 59 60 61 62 63 64 65 66 67 68 69 70 71 72 73 74 75 76 77 78 78 79 80 80 80 79 79 79 78 78 76 75 73 71 70 69 68 67 66 66 65 64 64 63 63 63 63 64 64 64 63 62 61 60 59 58 57 56 54 52 50 49 48 48 47 47 47 47 47 47 47 48 48 48 49 49 49 50 50 50 50
56 57 57 58 59 60 61 62 63 64 65 66 67 68 69 70 71 72 73 74 75 76 77 78 79 79 80 80 80 80 80 79 78 77 76 75 73 72 70 69 68 67 66 66 66 65 65 64 63 63 63 63 63 64 64 63 62 61 60 58 57 56 55 54 52 50 49 48 47 46 45 45 45 45 45 45 45 45 46 46 46 47 47 47 48 48
57 58 59 60 61 62 63 64 65 66 66 67 68 69 70 71 72 73 74 76 77 78 78 79 80 80 81 81 81 81 80 79 78 76 75 73 71 70 69 68 68 67 66 66 65 65 65 65 64 64 63 63 63 63 63 63 62 61 59 57 56 55 54 53 51 50 49 47 46 45 44 44 43 43 43 43 43 43 43 43 43 44 44 45 46 46
59 60 61 61 62 63 64 65 66 67 68 69 69 70 71 72 73 74 76 77 78 79 79 80 80 81 82 82 81 81 80 79 77 75 73 72 70 69 68 67 67 66 66 66 65 65 65 65 64 64 64 63 63 63 62 62 61 60 58 57 55 54 53 52 50 49 48 46 45 44 43 42 42 41 41 40 40 40 40 40 41 41 42 42 43 44
60 61 62 63 64 65 65 66 67 68 69 70 71 71 72 73 74 76 77 78 79 79 80 81 81 81 82 82 82 81 80 79 77 75 73 71 69 68 67 66 66 66 66 66 66 65 65 64 64 64 64 64 64 63 62 60 59 58 57 56 54 53 52 51 49 48 46 45 44 43 41 40 40 39 39 38 38 38 37 38 38 38 39 40 41 41
62 62 63 64 65 66 67 67 68 69 70 71 72 73 73 74 75 76 78 78 79 80 81 81 82 82 82 82 81 81 80 79 77 74 72 70 68 67 66 66 65 65 65 65 65 65 65 65 64 64 63 64 63 63 61 60 58 57 56 54 53 53 51 50 48 47 45 44 42 41 40 39 38 37 37 36 36 36 35 35 35 36 37 37 39 39
63 64 64 65 66 67 68 69 69 70 71 72 73 74 74 75 76 77 78 79 80 81 82 82 82 82 82 82 81 80 79 77 75 73 71 69 68 67 66 66 65 65 65 65 65 65 65 65 64 63 63 63 63 62 61 59 57 56 54 53 52 51 50 49 47 45 44 42 41 40 39 38 37 36 36 35 35 34 34 33 33 34 34 35 36 38
64 65 66 66 67 68 69 70 70 71 72 73 74 74 75 76 77 78 79 80 80 81 82 82 82 82 82 82 81 79 78 76 74 72 70 68 67 66 66 66 65 66 66 65 65 65 65 65 64 63 62 61 61 61 60 58 56 55 53 52 51 50 49 47 46 44 43 42 40 39 38 37 36 35 35 34 34 33 33 32 32 32 33 34 35 36
65 66 67 67 68 69 70 71 71 72 73 74 75 75 76 77 78 79 79 80 81 82 82 82 82 82 82 81 80 79 77 75 73 71 69 67 66 66 66 65 65 65 66 66 66 65 65 65 65 64 62 60 59 59 58 57 55 54 52 51 50 49 47 46 45 43 42 41 39 38 37 36 35 34 34 34 33 33 32 31 31 31 31 32 33 34
Wind_Direction
306 306 306 306 306 306 306 306 306 306 306 306 306 305 305 305 304 304 304 304 304 304 305 305 306 307 308 309 310 310 311 312 313 313 313 314 314 315 316 317 317 317 318 318 317 317 316 315 314 313 312 311 309 307 305 303 302 300 298 296 294 291 288 284 281 277 273 270 267 264 261 259 257 256 254 253 252 251 250 249 249 249 250 250 250 250
306 305 306 306 306 306 305 305 305 305 305 305 305 305 304 304 304 304 303 303 304 304 304 305 306 306 307 308 309 310 310 311 312 312 312 313 313 314 314 315 315 315 315 315 315 314 313 312 312 311 310 308 307 305 303 302 300 298 297 295 293 291 289 286 283 279 276 273 270 267 264 262 261 259 258 257 256 255 254 253 253 253 253 253 253 252
305 305 305 305 305 305 305 305 305 305 305 304 304 304 303 303 303 303 303 303 303 304 304 305 306 306 307 307 308 309 309 310 311 311 311 312 312 312 313 313 313 313 313 313 312 311 310 309 308 307 307 305 304 303 302 300 299 297 296 294 292 291 289 287 284 282 278 276 273 270 268 265 263 262 260 259 258 257 257 256 256 255 255 255 255 255
304 304 304 305 305 304 304 304 304 304 304 304 303 303 303 303 303 303 303 303 303 303 304 305 305 306 306 307 307 308 308 309 309 310 310 311 311 311 311 312 312 312 312 311 311 309 308 307 305 304 303 302 302 301 300 298 297 296 295 293 292 290 289 287 285 283 280 278 275 272 270 268 266 264 262 261 260 259 258 258 257 257 257 257 257 257
303 304 304 304 304 304 304 304 304 303 303 303 303 302 302 302 302 302 302 303 303 303 304 304 305 305 306 306 306 307 307 308 308 309 309 310 310 310 310 310 310 310 310 310 309 308 307 305 303 302 300 299 299 298 297 296 295 294 293 292 291 290 288 287 285 284 281 279 277 274 272 270 268 266 264 263 262 261 260 259 259 258 258 257 257 257
303 303 303 303 303 303 303 303 303 303 303 302 302 302 302 302 302 302 302 303 303 303 304 304 305 305 305 305 306 306 306 307 307 308 308 309 309 309 309 309 309 309 309 308 308 307 305 304 302 301 299 298 296 295 294 294 293 292 291 291 290 289 288 287 285 284 282 280 278 276 273 271 269 267 266 264 263 262 261 261 260 259 259 258 258 257
302 303 303 303 303 303 303 302 302 302 302 302 302 302 302 302 302 302 302 303 303 303 303 304 304 304 304 304 304 305 305 305 306 307 307 307 307 308 307 307 307 307 307 307 306 305 304 303 301 300 298 297 296 294 293 292 291 290 289 289 288 287 286 285 284 283 282 281 279 277 275 273 270 268 267 265 264 263 262 262 261 260 260 259 258 258
302 302 302 302 302 302 302 302 302 302 302 301 301 302 302 302 302 302 302 302 302 303 303 303 303 303 303 303 303 304 304 304 305 306 306 306 306 306 306 306 306 306 306 306 305 304 303 302 301 300 298 297 296 295 293 292 291 290 289 288 287 286 285 284 283 282 281 280 279 278 276 274 272 270 268 266 265 264 263 262 261 260 260 259 258 258
301 302 302 302 302 302 302 301 301 301 301 301 301 301 301 301 302 302 302 302 302 302 303 303 303 303 303 303 303 303 303 304 304 305 305 305 305 305 305 305 305 305 305 304 304 303 302 301 300 299 298 297 296 295 294 293 292 291 290 288 287 286 285 283 282 281 280 279 278 277 276 275 274 272 270 268 266 264 263 262 261 260 260 259 258 258
301 301 301 301 301 301 301 301 301 301 301 301 301 301 301 301 301 302 302 302 302 302 302 302 302 302 302 302 302 303 303 303 304 304 304 304 304 304 304 304 304 304 304 303 303 302 301 300 299 298 297 296 296 295 294 293 292 291 290 289 288 287 285 284 283 281 280 279 278 277 276 275 274 272 271 269 268 266 264 263 261 260 260 259 258 257
300 301 301 301 301 301 300 300 300 300 300 300 300 300 300 301 301 301 302 302 302 302 302 302 302 302 302 302 302 303 303 303 303 304 304 304 304 304 303 303 303 303 303 302 301 301 300 299 298 297 296 295 295 294 293 292 292 291 290 289 288 287 286 284 283 282 281 280 279 277 276 275 274 272 271 270 269 267 266 264 263 261 260 259 258 257
300 300 300 300 300 300 300 300 300 300 300 300 300 301 301 301 301 301 302 302 302 302 302 302 302 302 302 302 302 303 303 303 303 304 304 303 303 303 303 302 302 302 302 302 301 300 299 298 297 296 295 294 294 293 292 291 290 290 289 288 287 286 285 284 283 282 281 280 279 278 277 276 274 273 272 270 269 268 266 265 264 262 261 260 259 258
299 300 300 300 300 300 299 300 300 300 300 300 300 300 301 301 301 301 302 302 302 302 302 302 302 302 302 302 302 302 303 303 303 303 303 303 303 303 303 302 302 302 302 301 301 300 299 298 297 296 295 294 293 292 291 291 289 289 288 287 286 285 284 283 282 282 281 280 279 278 277 276 275 273 272 271 269 268 267 266 264 263 262 261 260 258
299 299 299 299 299 299 299 299 299 299 300 300 300 300 300 301 301 301 302 302 302 302 302 302 301 301 302 302 302 302 303 303 303 303 303 303 303 303 302 302 302 302 302 301 301 300 299 298 297 296 295 294 293 292 291 290 289 288 287 286 285 284 284 283 282 281 281 280 279 278 277 276 275 274 272 271 270 268 267 266 265 264 263 261 260 259
299 299 299 299 299 299 299 299 299 299 299 299 300 300 300 300 301 301 301 302 302 302 301 301 301 301 301 301 302 302 303 303 303 303 303 303 303 302 302 302 302 302 302 301 301 300 300 299 298 297 296 295 293 292 291 290 289 288 287 286 285 284 283 283 282 281 281 280 279 278 277 276 275 274 272 271 270 269 268 266 265 264 263 262 261 260
298 299 299 299 298 298 298 298 299 299 299 299 299 300 300 300 301 301 301 301 302 301 301 301 301 301 301 301 302 302 303 303 303 303 303 303 302 302 302 302 302 302 302 301 301 300 300 299 298 297 296 295 294 293 292 290 289 288 287 286 285 285 284 283 282 282 281 280 279 278 277 276 275 274 272 271 270 269 268 267 265 264 263 262 261 260
298 298 298 298 298 298 298 298 298 298 299 299 299 299 300 300 301 301 301 301 301 301 301 301 301 301 302 302 302 302 303 303 303 303 302 302 302 302 302 302 302 302 302 302 301 301 300 300 299 298 297 296 295 294 292 291 290 289 288 287 287 286 285 284 283 283 282 281 280 278 277 276 275 274 273 271 270 269 268 267 266 265 264 262 261 261
298 297 298 298 297 297 297 298 298 298 298 299 299 299 300 300 301 301 301 301 301 301 301 301 301 301 302 302 303 303 303 303 303 302 302 302 302 302 302 302 302 302 302 302 301 301 301 300 299 299 298 297 296 294 293 292 291 290 290 289 288 287 286 286 285 283 282 281 280 279 278 276 275 274 273 272 270 269 268 267 266 265 264 263 262 261
297 297 297 297 297 297 297 297 298 298 298 299 299 300 300 300 301 301 301 301 301 301 301 301 301 302 302 302 303 303 303 303 303 303 302 302 302 303 303 303 302 302 302 302 302 302 301 301 300 300 299 298 297 296 295 294 293 292 291 290 290 289 288 287 286 284 283 282 281 279 278 277 275 274 273 272 271 270 268 267 266 265 264 264 263 262
297 297 297 297 297 297 297 297 298 298 298 299 299 300 300 301 301 301 301 301 301 301 301 301 301 302 302 303 303 303 303 303 303 303 303 303 303 303 303 303 303 303 303 303 302 302 302 302 301 301 300 299 298 297 296 295 294 294 293 292 291 290 289 288 286 285 284 282 281 279 278 277 276 274 273 272 271 270 269 268 267 266 265 264 263 262
296 297 296 297 297 297 297 298 298 298 299 299 299 300 300 301 301 301 301 301 301 301 301 301 302 302 303 303 303 303 303 303 303 303 303 303 303 303 303 303 303 303 303 303 303 303 303 303 302 301 301 300 299 298 297 297 296 295 294 293 292 291 290 288 287 286 284 283 281 280 279 277 276 275 274 273 272 271 270 268 268 267 266 265 264 263
296 296 297 297 297 297 297 298 298 298 299 299 300 300 301 301 301 301 301 301 301 301 301 302 302 302 303 303 303 303 303 303 303 303 303 303 303 303 304 304 304 304 304 304 304 304 304 303 303 302 301 301 300 299 299 298 297 297 295 294 293 292 290 289 287 286 284 283 282 280 279 278 276 275 274 273 272 271 270 269 268 267 266 265 265 264
296 296 296 297 297 297 297 298 298 298 299 299 300 300 300 301 301 301 301 301 301 302 302 302 302 302 303 303 303 303 303 303 303 304 304 304 304 304 304 305 305 304 304 305 305 305 305 304 304 303 302 302 301 301 300 299 298 297 296 295 294 292 291 289 288 286 285 283 282 281 279 278 277 276 275 273 273 272 271 270 269 268 267 266 265 265
296 296 297 297 297 297 297 298 298 298 299 299 300 300 300 300 301 301 301 301 302 302 302 302 303 303 303 303 303 303 303 304 304 304 304 304 304 305 305 305 305 305 305 305 306 306 305 305 304 303 303 303 302 302 301 300 299 298 297 296 294 293 291 290 288 287 285 284 282 281 280 279 277 276 275 274 273 272 271 271 270 269 268 267 266 265
296 296 297 297 297 297 298 298 298 299 299 299 300 300 300 300 301 301 301 302 302 302 303 303 303 303 303 303 303 304 304 304 304 305 305 305 305 305 305 306 306 306 306 306 306 306 306 305 305 304 304 303 303 303 302 301 300 299 297 296 295 293 292 290 289 287 286 284 283 282 281 279 278 277 276 275 274 273 272 271 271 270 269 268 267 266
296 296 297 297 297 297 298 298 298 299 299 300 300 300 301 301 301 302 302 302 303 303 303 303 303 303 304 304 304 304 304 305 305 305 305 305 306 306 306 306 306 307 307 307 307 307 307 306 305 305 304 304 304 303 302 301 300 299 298 296 295 294 292 291 289 288 286 285 284 282 281 280 279 278 277 276 275 274 273 272 271 270 270 269 268 267
297 297 297 297 297 298 298 298 299 299 300 300 301 301 302 302 302 303 303 303 304 304 304 304 304 304 304 304 304 305 305 305 305 306 306 306 306 306 307 307 307 307 308 308 308 308 307 307 306 305 305 305 304 304 303 302 301 299 298 297 296 294 293 291 290 289 287 286 285 283 282 281 280 279 278 277 276 275 274 273 272 271 270 269 268 268
297 297 297 297 298 298 298 299 299 300 301 301 302 302 303 303 304 304 304 305 305 305 305 305 305 305 305 305 305 305 305 306 306 306 307 307 307 307 307 308 308 308 309 309 308 308 307 307 306 306 306 305 305 304 303 302 301 300 298 297 296 295 294 292 291 290 288 287 286 284 283 282 281 280 279 277 276 275 274 273 272 271 270 269 268 268
298 298 298 298 298 299 299 300 300 301 301 302 302 303 304 304 304 305 305 305 305 305 305 305 305 305 305 305 305 306 306 306 307 307 307 308 307 308 308 308 309 309 309 309 309 308 307 307 306 306 306 306 305 304 303 302 301 300 299 298 297 296 294 293 292 291 290 288 287 286 285 284 282 281 280 278 277 276 275 273 272 271 270 269 268 267
298 298 298 299 299 300 300 301 301 302 302 303 303 304 304 305 305 305 305 306 306 305 305 305 305 305 306 306 306 306 306 307 307 308 308 308 308 308 309 309 310 310 310 310 309 308 307 307 307 307 307 306 305 305 304 303 302 300 299 298 298 296 295 294 293 292 291 290 289 288 287 285 284 283 281 280 278 277 275 274 273 271 270 269 268 267
299 299 299 300 300 301 301 302 302 303 303 304 304 304 305 305 305 305 305 306 306 305 305 305 306 306 306 306 307 307 307 308 308 309 309 309 309 309 310 310 310 310 311 310 310 309 308 307 307 307 307 306 306 305 304 303 302 301 300 299 299 298 297 296 295 294 293 292 291 290 289 287 286 284 283 281 279 277 276 274 273 272 270 269 268 267
299 300 300 301 302 302 303 303 303 304 304 305 305 305 305 306 305 306 306 306 306 306 306 306 306 306 306 307 307 308 308 309 309 309 310 310 310 310 310 311 311 311 311 310 310 309 308 308 307 307 307 306 306 305 304 304 303 302 301 301 300 299 298 297 297 296 295 294 293 292 290 289 287 286 284 282 280 278 277 275 274 272 271 270 269 268
300 301 301 302 303 303 304 304 304 305 305 305 305 306 306 306 306 306 306 306 306 306 306 306 306 307 307 307 308 308 309 309 310 310 310 310 311 311 311 311 312 312 311 310 309 309 308 308 307 307 307 306 306 306 305 304 304 303 302 302 301 300 300 299 298 297 296 296 294 293 292 290 288 287 285 283 281 279 278 276 274 273 272 270 269 268
302 302 303 303 304 304 305 305 305 305 306 306 306 306 306 306 306 306 306 306 306 306 306 307 307 308 308 308 309 309 309 310 310 311 311 311 311 312 312 312 312 312 312 311 310 309 308 308 307 307 307 306 306 306 305 305 304 304 303 303 302 302 301 300 300 299 298 297 296 294 293 291 289 288 286 284 282 280 278 277 275 274 272 271 270 269
303 304 304 305 305 305 305 306 306 306 306 306 307 307 307 307 307 307 306 306 307 307 307 307 308 308 309 309 310 310 310 311 311 311 312 312 312 312 312 313 313 312 312 311 310 309 309 308 308 308 307 307 306 306 306 305 305 304 304 304 303 303 302 301 301 300 299 298 297 295 294 292 290 288 286 284 283 281 279 278 276 274 273 272 271 269
305 305 305 305 306 306 306 306 306 307 307 307 307 307 307 307 307 307 307 307 307 308 308 308 309 309 310 310 310 311 311 311 312 312 312 312 313 313 313 313 313 312 312 311 310 310 309 309 309 308 308 307 307 306 306 306 305 305 305 304 304 303 303 302 302 301 300 299 297 296 294 292 290 288 287 285 283 281 280 278 277 275 274 272 271 270
305 305 306 306 306 306 307 307 307 307 308 308 308 308 308 307 308 308 308 308 308 308 309 309 310 310 310 311 311 311 311 312 312 312 313 313 313 313 313 313 313 312 312 311 311 310 310 310 309 309 308 308 308 307 307 307 306 306 306 305 305 304 304 303 302 301 300 299 298 296 294 292 291 289 287 285 283 282 280 279 277 276 274 273 272 271
306 306 306 306 307 307 307 308 308 308 308 308 308 308 308 308 308 308 309 309 309 309 310 310 311 311 311 312 312 312 312 312 313 313 313 314 314 314 314 314 313 312 312 312 311 311 311 310 310 310 309 309 308 308 308 308 308 307 307 306 305 305 304 303 303 302 300 299 297 296 294 292 290 289 287 285 284 282 281 280 278 277 275 274 273 272
307 307 307 307 308 308 308 308 309 309 309 309 309 309 309 309 309 309 309 310 310 310 310 311 311 311 312 312 312 313 313 313 313 314 314 314 314 314 314 314 313 313 312 312 311 311 311 311 311 310 310 310 309 309 309 309 309 308 308 307 306 305 304 304 303 302 300 298 297 295 293 291 290 288 286 285 284 283 281 280 279 278 277 276 274 273
308 308 308 308 308 309 309 309 309 309 309 309 309 309 309 310 310 310 310 311 311 311 311 311 312 312 312 313 313 313 314 314 314 314 315 315 315 315 314 314 314 313 313 312 312 312 311 311 311 310 310 310 310 310 310 310 309 309 309 308 307 306 305 304 303 301 300 298 296 294 292 291 289 287 286 285 284 283 282 281 280 279 278 277 276 275
308 308 309 309 309 309 309 309 309 310 310 310 310 310 310 311 311 311 311 311 311 311 312 312 312 313 313 313 313 314 314 315 315 315 315 315 315 315 315 314 314 313 313 313 312 312 312 312 311 311 311 311 310 310 310 310 310 310 309 309 308 307 306 304 303 301 299 297 295 294 292 290 289 287 286 285 284 283 282 281 280 280 279 278 277 276
309 309 309 309 310 310 310 310 310 310 310 311 311 311 311 311 312 312 312 312 312 312 312 313 313 313 313 314 314 314 315 315 315 316 316 316 316 315 315 315 314 314 314 313 313 312 312 312 311 311 311 311 311 311 311 311 311 310 310 309 309 307 306 304 303 301 299 297 295 294 292 291 289 288 287 285 284 284 282 282 281 280 279 278 278 277
309 309 310 310 310 310 310 311 311 311 311 311 311 311 312 312 312 312 312 312 312 312 313 313 313 314 314 314 315 315 315 316 316 316 316 316 316 316 315 315 315 314 314 314 313 313 312 312 312 312 312 312 312 312 312 311 311 311 310 310 309 308 306 305 303 301 300 298 296 295 293 292 291 289 288 287 285 284 283 282 281 280 279 279 278 277
310 310 310 310 311 311 311 311 311 311 312 312 312 312 312 312 312 313 312 312 313 313 313 314 314 314 314 315 315 315 316 316 316 316 317 317 316 316 316 315 315 315 314 314 314 313 313 312 312 312 312 312 312 312 312 312 312 311 311 310 309 308 307 305 304 302 300 299 298 296 295 294 293 291 289 288 286 285 283 282 281 280 279 279 278 277
310 311 311 311 311 311 311 311 312 312 312 312 312 312 313 313 313 313 313 313 313 313 314 314 314 315 315 315 315 316 316 316 316 317 317 317 316 316 316 316 316 315 315 314 314 313 313 313 312 312 312 312 312 312 312 312 312 312 311 310 309 308 306 305 304 303 302 301 300 298 297 296 295 293 291 289 287 285 284 282 281 280 279 278 277 277
311 311 311 311 311 311 312 312 312 312 312 312 312 313 313 313 313 313 313 313 313 313 314 314 314 315 315 315 316 316 316 316 317 317 317 317 316 316 316 316 316 315 315 314 314 313 313 313 313 313 313 313 313 312 312 312 312 312 311 310 309 307 306 305 304 303 303 302 301 300 299 298 296 295 293 290 288 286 284 282 281 280 278 277 277 276
311 311 311 311 311 312 312 312 312 312 312 312 313 313 313 313 313 313 313 313 313 314 314 314 315 315 315 315 316 316 316 317 317 317 317 317 317 317 316 316 316 316 315 314 314 313 313 313 313 313 313 313 313 313 313 312 312 312 311 310 309 307 306 305 304 304 304 303 303 302 301 300 298 296 293 291 288 286 284 282 280 279 278 277 276 275
311 311 311 311 312 312 312 312 312 312 312 312 313 313 313 313 313 313 313 313 314 314 314 314 315 315 315 316 316 316 317 317 317 318 318 317 317 317 317 316 316 316 315 314 314 313 313 313 313 313 313 313 313 313 313 313 312 312 311 310 309 307 306 305 305 305 305 304 304 303 302 301 299 297 294 291 288 285 283 281 280 278 277 276 275 274
311 311 311 312 312 312 312 312 312 312 312 312 313 313 313 313 313 313 313 313 314 314 314 314 315 315 315 316 316 316 317 317 317 318 318 318 317 317 317 317 316 315 315 314 314 313 313 313 313 313 313 313 313 313 313 313 313 312 311 310 308 307 306 306 306 306 306 306 305 305 303 302 300 297 294 291 288 285 282 280 279 277 276 275 274 273
311 311 312 312 312 312 312 312 312 312 312 312 313 313 313 313 313 313 313 313 314 314 314 314 315 315 316 316 316 317 317 317 318 318 318 317 317 317 317 317 316 316 315 314 313 313 313 313 313 313 313 313 313 313 313 313 313 312 311 309 308 307 307 307 307 307 307 307 307 306 305 303 301 297 294 291 288 285 282 280 279 277 276 275 273 272
311 312 312 312 312 312 312 312 312 312 312 312 312 313 313 313 313 313 313 313 314 314 314 315 315 315 316 316 316 317 317 317 318 318 318 318 317 317 317 317 316 315 315 314 313 313 313 313 313 312 313 313 313 313 313 313 313 312 311 309 308 307 307 307 308 308 309 309 309 308 307 305 302 299 296 292 289 286 284 282 279 277 276 274 273 272
Height
10523 10520 10517 10515 10512 10508 10505 10503 10501 10498 10495 10493 10491 10489 10487 10485 10483 10481 10479 10477 10475 10473 10472 10470 10468 10466 10465 10463 10462 10460 10458 10457 10455 10454 10453 10451 10450 10448 10446 10444 10443 10441 10439 10437 10435 10433 10431 10429 10428 10427 10426 10425 10425 10424 10424 10424 10424 10423 10423 10423 10423 10423 10423 10423 10424 10424 10424 10425 10425 10425 10426 10426 10427 10427 10427 10428 10428 10429 10430 10430 10431 10432 10432 10433 10434 10435
10518 10515 10513 10510 10508 10505 10501 10498 10497 10495 10492 10489 10487 10485 10483 10481 10479 10477 10475 10473 10472 10470 10468 10466 10465 10463 10461 10460 10458 10457 10455 10453 10452 10451 10449 10448 10446 10445 10443 10442 10440 10438 10437 10435 10434 10432 10430 10428 10426 10425 10423 10422 10422 10421 10421 10420 10420 10420 10420 10420 10420 10420 10420 10420 10420 10420 10420 10420 10420 10421 10421 10422 10422 10422 10423 10423 10423 10424 10425 10425 10426 10427 10427 10428 10428 10429
10513 10510 10508 10506 10504 10501 10498 10495 10492 10490 10488 10486 10483 10482 10480 10477 10475 10473 10472 10470 10468 10466 10465 10463 10461 10459 10458 10456 10455 10453 10452 10450 10448 10447 10446 10444 10443 10441 10440 10438 10437 10436 10435 10433 10432 10430 10428 10427 10425 10423 10422 10420 10419 10418 10417 10417 10417 10417 10417 10416 10416 10416 10416 10416 10416 10416 10416 10416 10417 10417 10417 10417 10417 10417 10418 10418 10418 10419 10420 10420 10420 10421 10421 10422 10422 10423
10508 10506 10503 10502 10499 10497 10494 10492 10488 10487 10485 10482 10480 10478 10476 10473 10472 10470 10468 10466 10464 10462 10461 10459 10458 10456 10454 10453 10451 10450 10448 10447 10445 10444 10442 10440 10439 10437 10436 10435 10433 10432 10431 10430 10428 10427 10426 10425 10423 10422 10420 10418 10417 10415 10415 10413 10413 10413 10412 10412 10412 10412 10412 10412 10412 10412 10412 10412 10412 10412 10412 10412 10412 10412 10412 10412 10413 10413 10413 10414 10414 10415 10415 10415 10416 10417
10504 10502 10499 10497 10495 10492 10490 10488 10485 10483 10480 10478 10476 10474 10472 10470 10468 10466 10464 10462 10460 10458 10457 10455 10454 10452 10451 10449 10448 10447 10445 10443 10442 10440 10439 10437 10435 10434 10432 10431 10430 10428 10428 10427 10425 10424 10423 10422 10420 10419 10418 10417 10415 10413 10412 10411 10410 10409 10408 10408 10407 10407 10407 10407 10407 10407 10407 10407 10407 10407 10407 10407 10407 10407 10407 10407 10407 10407 10407 10407 10408 10408 10408 10409 10410 10410
10499 10497 10495 10493 10490 10488 10485 10483 10481 10479 10477 10474 10472 10470 10468 10466 10464 10462 10460 10458 10457 10455 10453 10452 10450 10448 10447 10446 10444 10443 10442 10440 10439 10437 10435 10434 10432 10430 10429 10427 10426 10425 10424 10423 10422 10420 10419 10418 10417 10416 10415 10413 10412 10412 10410 10409 10408 10407 10405 10404 10403 10403 10402 10402 10402 10402 10402 10402 10402 10402 10402 10402 10402 10402 10401 10401 10400 10400 10400 10401 10401 10402 10402 10402 10403 10403
10494 10492 10491 10488 10486 10483 10482 10479 10477 10475 10473 10470 10468 10466 10464 10462 10460 10458 10457 10455 10453 10452 10450 10448 10447 10445 10444 10442 10441 10440 10438 10437 10435 10434 10432 10430 10428 10427 10425 10424 10423 10422 10420 10419 10418 10417 10415 10414 10413 10412 10410 10410 10408 10408 10407 10406 10405 10403 10402 10401 10400 10399 10398 10397 10397 10396 10395 10395 10395 10395 10396 10396 10396 10396 10395 10395 10395 10395 10394 10394 10394 10395 10395 10395 10396 10397
10488 10487 10486 10484 10482 10479 10477 10475 10473 10471 10469 10467 10464 10462 10460 10458 10457 10455 10453 10451 10450 10448 10446 10444 10443 10442 10440 10439 10437 10436 10435 10433 10432 10430 10428 10427 10425 10423 10422 10420 10418 10418 10417 10415 10414 10413 10411 10410 10408 10407 10406 10405 10404 10403 10402 10401 10400 10399 10398 10397 10397 10395 10394 10393 10392 10391 10390 10390 10389 10388 10388 10389 10389 10389 10389 10389 10389 10388 10388 10388 10388 10388 10388 10388 10388 10389
10485 10482 10480 10479 10477 10475 10472 10470 10468 10467 10465 10463 10460 10458 10456 10454 10452 10451 10449 10448 10446 10444 10442 10440 10438 10437 10436 10435 10433 10432 10431 10430 10428 10427 10425 10423 10421 10419 10417 10416 10415 10413 10412 10412 10410 10408 10407 10405 10404 10403 10402 10400 10399 10398 10397 10396 10395 10394 10393 10392 10392 10390 10390 10388 10387 10387 10385 10384 10383 10383 10382 10382 10382 10382 10382 10382 10382 10382 10382 10382 10381 10381 10381 10381 10382 10382
10480 10478 10476 10474 10473 10471 10468 10466 10464 10463 10461 10459 10457 10455 10453 10450 10448 10447 10445 10443 10442 10440 10439 10437 10435 10433 10432 10430 10430 10428 10427 10425 10424 10423 10421 10419 10417 10415 10413 10412 10410 10409 10408 10407 10406 10404 10403 10402 10400 10398 10397 10396 10394 10393 10392 10390 10389 10388 10387 10386 10385 10384 10383 10382 10382 10380 10380 10378 10377 10377 10376 10375 10375 10374 10374 10374 10374 10374 10374 10374 10374 10374 10374 10374 10374 10374
10475 10473 10472 10470 10468 10466 10465 10462 10460 10458 10457 10455 10452 10450 10449 10447 10445 10443 10441 10439 10437 10436 10435 10433 10432 10430 10427 10426 10425 10423 10422 10421 10419 10418 10417 10415 10412 10410 10408 10407 10406 10405 10403 10402 10401 10400 10398 10397 10396 10395 10393 10392 10390 10388 10387 10386 10384 10383 10382 10380 10379 10377 10377 10375 10374 10373 10372 10372 10371 10370 10369 10368 10367 10367 10367 10366 10366 10366 10366 10366 10366 10367 10367 10367 10367 10367
10471 10469 10467 10465 10463 10462 10460 10458 10456 10454 10452 10450 10448 10446 10444 10443 10442 10440 10437 10435 10433 10432 10430 10428 10427 10425 10424 10422 10420 10418 10418 10416 10415 10413 10412 10410 10408 10405 10403 10402 10401 10400 10399 10397 10396 10395 10394 10393 10391 10390 10388 10387 10385 10384 10382 10381 10379 10378 10376 10375 10373 10372 10370 10368 10367 10366 10365 10364 10363 10362 10362 10361 10360 10359 10359 10358 10358 10358 10358 10358 10358 10358 10358 10358 10358 10358
10467 10465 10463 10460 10459 10457 10455 10453 10451 10450 10448 10446 10444 10442 10440 10438 10437 10436 10433 10432 10430 10428 10426 10424 10422 10421 10420 10418 10417 10414 10413 10411 10410 10408 10407 10405 10403 10400 10398 10397 10395 10395 10393 10392 10391 10390 10388 10387 10386 10385 10383 10382 10380 10378 10377 10375 10374 10372 10370 10368 10367 10365 10363 10362 10360 10358 10357 10356 10355 10354 10353 10352 10352 10351 10350 10350 10350 10349 10349 10349 10349 10349 10350 10350 10350 10350
10462 10460 10458 10456 10454 10452 10451 10449 10447 10445 10443 10442 10440 10438 10437 10435 10433 10432 10430 10427 10425 10424 10422 10420 10418 10417 10415 10414 10412 10410 10408 10407 10405 10403 10402 10400 10398 10396 10393 10392 10390 10389 10388 10387 10385 10384 10383 10382 10380 10378 10377 10376 10375 10373 10372 10370 10368 10366 10363 10362 10360 10358 10357 10355 10353 10351 10350 10348 10347 10346 10345 10344 10343 10342 10342 10342 10341 10341 10340 10340 10340 10340 10340 10341 10341 10342
10457 10455 10453 10452 10450 10448 10447 10445 10443 10441 10439 10438 10436 10434 10433 10431 10429 10427 10425 10423 10421 10420 10418 10416 10414 10412 10411 10410 10408 10406 10404 10402 10400 10398 10397 10395 10393 10391 10388 10386 10385 10384 10383 10382 10380 10378 10377 10375 10374 10372 10371 10370 10368 10367 10365 10363 10361 10358 10357 10355 10353 10351 10349 10347 10345 10343 10342 10340 10339 10338 10337 10335 10334 10333 10333 10332 10332 10332 10332 10332 10332 10332 10332 10332 10332 10332
10453 10451 10449 10447 10445 10443 10442 10440 10438 10437 10435 10433 10432 10430 10428 10427 10425 10423 10422 10419 10417 10415 10413 10412 10410 10408 10406 10405 10404 10402 10400 10397 10395 10393 10392 10390 10388 10387 10384 10382 10379 10378 10377 10377 10375 10373 10371 10370 10368 10366 10365 10363 10362 10360 10358 10355 10353 10351 10349 10347 10345 10343 10341 10339 10337 10335 10333 10332 10330 10329 10328 10327 10325 10325 10324 10323 10323 10322 10322 10322 10322 10322 10322 10323 10323 10323
10448 10447 10445 10443 10441 10439 10438 10436 10435 10433 10431 10429 10428 10426 10425 10423 10421 10419 10417 10415 10413 10411 10409 10407 10405 10403 10401 10399 10398 10398 10396 10393 10390 10388 10387 10385 10383 10381 10380 10377 10374 10372 10372 10370 10368 10367 10365 10363 10361 10360 10358 10356 10354 10352 10350 10348 10345 10343 10341 10338 10337 10335 10333 10331 10329 10327 10325 10323 10322 10320 10319 10318 10317 10315 10315 10314 10313 10313 10313 10313 10313 10313 10313 10313 10314 10314
10444 10442 10440 10438 10437 10435 10433 10432 10430 10428 10427 10425 10423 10422 10420 10418 10417 10415 10413 10411 10408 10407 10404 10402 10401 10399 10397 10394 10392 10392 10391 10388 10385 10383 10381 10379 10377 10376 10374 10372 10369 10367 10365 10364 10362 10360 10358 10357 10355 10353 10351 10349 10347 10345 10342 10340 10337 10335 10333 10330 10328 10326 10324 10322 10320 10318 10317 10315 10313 10312 10310 10308 10308 10307 10306 10305 10305 10304 10304 10304 10304 10304 10304 10304 10305 10305
10439 10438 10436 10434 10432 10430 10429 10427 10425 10424 10422 10420 10419 10417 10415 10413 10412 10410 10408 10407 10405 10402 10400 10398 10396 10394 10392 10390 10387 10386 10385 10383 10380 10377 10375 10373 10372 10370 10368 10367 10364 10362 10360 10358 10356 10354 10352 10350 10348 10346 10343 10342 10339 10337 10334 10332 10329 10327 10325 10322 10320 10318 10315 10313 10312 10310 10308 10306 10305 10303 10302 10300 10299 10298 10297 10297 10296 10295 10295 10295 10295 10295 10295 10295 10295 10296
10434 10433 10432 10430 10428 10426 10424 10423 10421 10420 10418 10416 10414 10413 10411 10409 10408 10406 10404 10402 10400 10398 10396 10394 10392 10389 10388 10385 10383 10381 10379 10377 10375 10372 10370 10368 10367 10365 10363 10361 10358 10355 10353 10352 10350 10347 10345 10343 10340 10338 10336 10333 10331 10328 10326 10323 10321 10318 10316 10313 10312 10309 10307 10305 10303 10302 10300 10298 10296 10295 10293 10292 10291 10290 10288 10288 10287 10287 10287 10287 10287 10286 10286 10287 10287 10287
10430 10428 10427 10426 10424 10422 10420 10418 10417 10415 10413 10412 10410 10408 10406 10405 10403 10401 10399 10397 10395 10393 10392 10389 10387 10385 10383 10380 10378 10375 10374 10372 10369 10367 10364 10362 10360 10359 10357 10355 10352 10349 10347 10345 10343 10341 10338 10335 10333 10331 10328 10326 10323 10320 10318 10315 10312 10310 10307 10305 10303 10300 10298 10297 10295 10293 10291 10290 10288 10287 10285 10284 10283 10282 10281 10280 10279 10279 10278 10278 10278 10278 10278 10278 10278 10278
10425 10423 10422 10421 10420 10418 10415 10414 10412 10410 10409 10407 10405 10403 10402 10400 10398 10397 10395 10393 10391 10388 10387 10385 10382 10380 10378 10376 10373 10371 10369 10367 10364 10362 10359 10357 10354 10353 10352 10349 10346 10343 10340 10338 10336 10333 10331 10328 10326 10323 10320 10318 10315 10312 10310 10307 10304 10302 10298 10297 10294 10292 10290 10288 10287 10285 10283 10282 10280 10278 10277 10277 10275 10274 10273 10272 10272 10271 10270 10270 10270 10270 10270 10270 10270 10270
10422 10420 10418 10417 10415 10413 10412 10410 10408 10406 10405 10403 10401 10399 10398 10396 10394 10392 10390 10388 10386 10384 10382 10380 10378 10376 10374 10372 10369 10367 10364 10362 10359 10357 10354 10351 10348 10346 10345 10343 10340 10337 10334 10332 10329 10326 10323 10321 10318 10315 10313 10310 10307 10305 10302 10298 10295 10293 10290 10288 10286 10283 10282 10280 10278 10277 10275 10274 10272 10271 10270 10269 10268 10267 10266 10265 10264 10263 10263 10262 10262 10262 10262 10261 10261 10262
10418 10416 10414 10412 10411 10409 10408 10405 10403 10402 10400 10398 10397 10395 10393 10392 10390 10388 10386 10384 10382 10380 10377 10375 10373 10370 10368 10367 10365 10362 10359 10357 10354 10351 10348 10345 10343 10340 10339 10337 10333 10330 10327 10325 10323 10320 10316 10313 10310 10308 10305 10302 10300 10297 10293 10290 10287 10285 10282 10280 10278 10276 10274 10272 10270 10269 10268 10267 10265 10264 10263 10262 10260 10259 10258 10257 10257 10256 10255 10254 10254 10253 10253 10253 10253 10253
10413 10412 10410 10408 10407 10405 10403 10402 10400 10397 10395 10393 10392 10390 10389 10387 10385 10383 10382 10380 10378 10375 10373 10370 10368 10365 10363 10362 10359 10357 10354 10352 10349 10346 10343 10339 10337 10334 10333 10331 10328 10323 10320 10318 10316 10313 10309 10305 10303 10300 10298 10295 10292 10289 10286 10283 10280 10277 10274 10272 10270 10268 10267 10265 10263 10262 10260 10259 10258 10257 10255 10254 10253 10252 10251 10250 10249 10248 10247 10247 10246 10245 10245 10245 10244 10244
10409 10408 10406 10404 10402 10400 10398 10397 10395 10393 10391 10389 10387 10385 10384 10382 10380 10378 10377 10375 10373 10370 10368 10365 10362 10360 10358 10357 10354 10351 10348 10347 10343 10341 10337 10334 10330 10327 10326 10324 10322 10318 10314 10311 10309 10306 10302 10298 10295 10292 10290 10287 10285 10282 10278 10275 10272 10270 10267 10265 10263 10261 10259 10257 10256 10255 10253 10252 10251 10250 10248 10247 10246 10245 10243 10242 10241 10240 10239 10238 10238 10237 10237 10236 10235 10235
10405 10403 10402 10400 10398 10396 10394 10393 10391 10389 10387 10385 10383 10381 10379 10377 10375 10373 10371 10369 10367 10365 10362 10360 10357 10355 10353 10351 10348 10346 10343 10340 10338 10335 10332 10328 10325 10321 10319 10317 10315 10312 10308 10304 10302 10299 10295 10290 10287 10285 10282 10280 10277 10274 10271 10268 10265 10262 10260 10258 10256 10254 10252 10250 10249 10248 10247 10245 10244 10243 10242 10240 10239 10238 10236 10235 10233 10232 10232 10230 10230 10228 10228 10227 10227 10227
10400 10398 10397 10395 10393 10392 10390 10388 10387 10385 10383 10380 10378 10377 10374 10372 10370 10367 10365 10363 10362 10360 10357 10355 10352 10349 10347 10345 10342 10340 10338 10335 10332 10329 10326 10323 10318 10315 10313 10310 10308 10305 10302 10297 10294 10292 10288 10285 10280 10277 10275 10272 10270 10267 10264 10261 10258 10256 10253 10251 10249 10247 10245 10243 10242 10240 10239 10238 10237 10235 10234 10233 10232 10230 10228 10227 10226 10225 10223 10222 10222 10220 10220 10219 10218 10218
10395 10393 10392 10390 10388 10387 10385 10384 10382 10380 10378 10377 10374 10372 10370 10368 10365 10363 10360 10358 10357 10354 10352 10349 10347 10345 10342 10339 10337 10334 10332 10330 10327 10323 10320 10316 10312 10308 10307 10303 10301 10298 10295 10290 10286 10283 10281 10278 10275 10271 10268 10265 10262 10260 10257 10254 10252 10249 10247 10245 10243 10241 10238 10237 10235 10233 10232 10231 10229 10228 10227 10225 10223 10222 10221 10219 10218 10217 10215 10214 10213 10212 10211 10210 10210 10210
10390 10389 10387 10385 10384 10383 10381 10380 10378 10376 10374 10372 10370 10368 10366 10364 10362 10359 10357 10354 10352 10349 10347 10344 10342 10339 10337 10333 10330 10328 10325 10323 10321 10318 10314 10310 10305 10302 10300 10297 10293 10291 10288 10283 10278 10274 10272 10270 10268 10265 10262 10258 10255 10253 10250 10247 10245 10242 10240 10238 10236 10234 10232 10230 10228 10227 10225 10223 10222 10220 10218 10217 10215 10214 10212 10211 10210 10208 10207 10206 10205 10204 10203 10202 10202 10201
10387 10385 10383 10382 10380 10378 10377 10375 10373 10372 10370 10368 10366 10364 10362 10360 10358 10355 10353 10350 10348 10345 10342 10339 10337 10334 10332 10328 10325 10322 10318 10317 10315 10312 10309 10304 10299 10296 10293 10290 10286 10283 10281 10278 10273 10267 10262 10260 10260 10258 10256 10252 10249 10247 10243 10241 10238 10236 10233 10232 10230 10228 10225 10223 10222 10219 10218 10216 10214 10212 10210 10208 10207 10205 10204 10203 10202 10200 10199 10198 10197 10196 10195 10194 10193 10193
10382 10381 10379 10377 10376 10374 10373 10371 10369 10367 10366 10364 10362 10360 10358 10355 10353 10351 10348 10346 10343 10340 10337 10335 10332 10329 10327 10324 10321 10317 10313 10310 10308 10306 10303 10298 10293 10290 10287 10284 10280 10276 10273 10270 10267 10262 10257 10253 10251 10250 10249 10247 10243 10240 10238 10235 10232 10230 10227 10225 10223 10221 10219 10217 10214 10212 10210 10208 10207 10205 10203 10201 10199 10197 10196 10194 10193 10192 10191 10190 10189 10188 10187 10187 10186 10185
10378 10377 10375 10374 10372 10370 10368 10367 10365 10363 10362 10360 10358 10355 10353 10351 10349 10347 10344 10342 10339 10336 10333 10330 10327 10323 10321 10318 10315 10312 10309 10306 10303 10300 10297 10292 10288 10283 10280 10277 10273 10269 10265 10262 10259 10256 10252 10248 10245 10243 10242 10240 10238 10235 10232 10229 10227 10223 10222 10219 10217 10215 10212 10210 10207 10205 10203 10201 10199 10197 10195 10193 10191 10189 10188 10186 10185 10184 10183 10182 10182 10180 10180 10179 10178 10178
10375 10373 10372 10370 10368 10367 10365 10363 10361 10359 10357 10355 10353 10351 10349 10347 10344 10342 10339 10337 10334 10332 10328 10325 10322 10319 10315 10312 10309 10307 10303 10301 10298 10294 10290 10287 10282 10277 10273 10270 10267 10263 10259 10255 10252 10248 10245 10242 10239 10236 10234 10233 10232 10230 10227 10223 10221 10218 10216 10213 10211 10208 10206 10203 10201 10198 10196 10194 10192 10190 10188 10185 10183 10182 10180 10178 10177 10176 10175 10174 10173 10173 10172 10172 10171 10170
10372 10370 10368 10367 10365 10363 10361 10359 10357 10355 10353 10351 10349 10347 10345 10342 10340 10337 10334 10332 10329 10326 10323 10321 10318 10315 10311 10308 10304 10300 10297 10295 10292 10288 10285 10281 10277 10272 10267 10264 10261 10257 10253 10248 10245 10242 10237 10234 10232 10230 10227 10225 10224 10223 10222 10219 10216 10213 10210 10208 10205 10202 10200 10197 10195 10192 10190 10187 10185 10183 10180 10178 10176 10174 10172 10171 10170 10168 10167 10167 10166 10165 10165 10165 10164 10163
10368 10367 10365 10363 10361 10359 10357 10355 10353 10351 10349 10347 10345 10342 10340 10338 10335 10332 10330 10327 10324 10321 10318 10315 10313 10310 10307 10303 10300 10295 10292 10288 10285 10283 10279 10275 10271 10267 10262 10258 10255 10251 10247 10242 10238 10235 10232 10228 10225 10223 10221 10218 10217 10216 10215 10214 10212 10208 10205 10203 10200 10197 10194 10192 10188 10186 10183 10181 10178 10176 10174 10172 10169 10167 10165 10163 10162 10161 10160 10160 10159 10158 10158 10157 10157 10156
10365 10363 10361 10360 10358 10355 10353 10351 10349 10347 10345 10342 10340 10338 10335 10333 10330 10327 10325 10322 10318 10316 10313 10310 10307 10304 10301 10298 10295 10291 10287 10283 10280 10277 10273 10270 10266 10262 10257 10252 10248 10245 10242 10237 10233 10229 10226 10222 10219 10217 10215 10212 10210 10208 10207 10207 10205 10203 10200 10197 10195 10192 10188 10186 10183 10180 10178 10175 10172 10170 10168 10165 10163 10160 10158 10157 10155 10154 10153 10152 10152 10152 10151 10150 10150 10149
10361 10359 10357 10356 10354 10352 10350 10347 10345 10343 10341 10338 10336 10333 10331 10328 10325 10323 10320 10317 10313 10310 10307 10304 10302 10298 10295 10292 10289 10285 10282 10278 10274 10270 10267 10263 10260 10256 10252 10247 10243 10239 10237 10233 10228 10224 10221 10217 10214 10210 10208 10206 10204 10202 10201 10199 10198 10196 10194 10192 10189 10187 10183 10181 10178 10175 10173 10170 10167 10164 10162 10159 10157 10154 10152 10150 10148 10147 10147 10145 10145 10145 10144 10143 10143 10143
10358 10355 10353 10352 10350 10348 10345 10343 10341 10339 10337 10334 10332 10329 10326 10323 10320 10318 10315 10312 10308 10305 10302 10299 10296 10293 10290 10287 10283 10280 10276 10272 10268 10265 10261 10257 10253 10250 10246 10241 10237 10233 10230 10227 10223 10220 10216 10212 10209 10206 10203 10200 10197 10195 10194 10193 10191 10189 10187 10185 10183 10181 10178 10176 10173 10170 10167 10165 10162 10159 10157 10154 10152 10148 10147 10145 10143 10142 10140 10139 10138 10138 10137 10137 10137 10137
10354 10352 10350 10348 10346 10344 10342 10339 10337 10335 10332 10330 10327 10324 10322 10318 10315 10312 10310 10307 10303 10300 10297 10294 10291 10288 10285 10282 10278 10274 10270 10267 10263 10259 10255 10251 10247 10243 10240 10236 10232 10227 10223 10220 10218 10215 10212 10208 10204 10202 10198 10195 10192 10190 10188 10187 10185 10183 10180 10178 10175 10173 10172 10170 10167 10165 10162 10159 10157 10154 10152 10149 10147 10144 10142 10140 10138 10137 10135 10134 10133 10132 10132 10131 10130 10130
10350 10348 10346 10344 10342 10340 10338 10335 10333 10330 10328 10325 10322 10319 10317 10313 10310 10307 10304 10301 10298 10295 10292 10288 10285 10282 10278 10276 10273 10269 10265 10261 10257 10253 10249 10245 10241 10237 10233 10230 10226 10222 10218 10215 10212 10209 10206 10203 10199 10196 10193 10190 10187 10185 10182 10180 10178 10177 10174 10171 10168 10167 10165 10163 10162 10159 10157 10154 10152 10149 10147 10144 10142 10139 10137 10135 10133 10132 10130 10129 10128 10127 10127 10126 10125 10125
10346 10344 10342 10340 10338 10335 10333 10331 10328 10326 10323 10320 10317 10314 10312 10308 10305 10302 10298 10295 10292 10288 10285 10282 10279 10275 10272 10268 10266 10263 10260 10255 10252 10247 10243 10239 10235 10231 10227 10223 10220 10217 10213 10209 10206 10203 10200 10198 10195 10192 10188 10185 10182 10179 10177 10175 10173 10171 10168 10165 10162 10160 10158 10157 10155 10153 10150 10148 10146 10144 10142 10139 10137 10135 10133 10131 10129 10128 10127 10125 10123 10123 10122 10121 10120 10120
10342 10340 10338 10336 10333 10332 10329 10327 10324 10321 10318 10315 10312 10309 10307 10303 10300 10297 10293 10290 10287 10283 10280 10277 10273 10270 10266 10262 10259 10257 10253 10250 10247 10242 10238 10233 10229 10225 10222 10218 10214 10211 10207 10204 10200 10197 10195 10192 10190 10187 10183 10181 10178 10175 10172 10169 10167 10165 10162 10160 10157 10153 10151 10149 10148 10147 10145 10143 10141 10138 10137 10135 10133 10130 10128 10127 10125 10123 10122 10121 10120 10118 10117 10117 10116 10115
10338 10336 10333 10332 10329 10327 10325 10322 10319 10317 10313 10310 10307 10304 10301 10298 10295 10292 10288 10284 10281 10277 10274 10271 10267 10264 10260 10257 10253 10250 10247 10244 10241 10237 10233 10229 10225 10220 10217 10212 10208 10205 10202 10199 10195 10192 10188 10186 10184 10182 10179 10176 10173 10170 10167 10164 10162 10159 10157 10154 10152 10148 10145 10143 10141 10140 10138 10137 10135 10133 10132 10130 10128 10126 10124 10122 10121 10119 10118 10117 10115 10114 10113 10112 10112 10111
10333 10332 10329 10327 10325 10322 10320 10317 10314 10312 10308 10305 10302 10299 10296 10293 10290 10287 10283 10279 10275 10272 10268 10265 10262 10258 10254 10251 10248 10245 10241 10238 10235 10232 10228 10224 10220 10216 10212 10208 10204 10200 10197 10193 10190 10187 10184 10181 10178 10176 10174 10172 10168 10165 10162 10160 10157 10154 10152 10149 10146 10143 10140 10138 10136 10134 10132 10131 10130 10128 10127 10125 10123 10121 10120 10118 10116 10115 10113 10112 10111 10110 10109 10108 10107 10107
10330 10327 10325 10323 10320 10318 10315 10312 10310 10307 10303 10300 10298 10295 10291 10288 10285 10281 10278 10274 10270 10266 10263 10260 10257 10253 10248 10245 10242 10238 10235 10232 10228 10225 10222 10218 10215 10211 10207 10203 10200 10195 10192 10188 10185 10182 10180 10177 10174 10171 10168 10166 10163 10161 10158 10155 10152 10149 10147 10143 10141 10138 10135 10133 10131 10129 10128 10126 10125 10123 10122 10120 10118 10117 10115 10113 10111 10110 10108 10108 10107 10105 10105 10104 10103 10102
10325 10323 10320 10318 10315 10313 10310 10307 10305 10302 10298 10295 10292 10290 10287 10283 10279 10275 10272 10268 10265 10261 10257 10254 10251 10247 10243 10240 10237 10233 10229 10225 10222 10219 10216 10213 10210 10206 10202 10198 10195 10191 10187 10183 10180 10177 10174 10172 10169 10167 10164 10161 10158 10155 10153 10150 10148 10145 10142 10138 10135 10133 10130 10128 10127 10125 10123 10122 10120 10118 10117 10115 10114 10112 10110 10108 10107 10105 10104 10103 10102 10102 10100 10099 10098 10098
10321 10318 10316 10313 10311 10308 10305 10302 10300 10297 10293 10290 10287 10284 10281 10278 10275 10270 10267 10263 10260 10256 10252 10248 10245 10242 10238 10235 10231 10228 10224 10220 10217 10213 10210 10207 10204 10200 10197 10193 10190 10186 10183 10179 10175 10172 10169 10167 10164 10162 10160 10157 10153 10150 10148 10145 10143 10140 10137 10134 10131 10128 10125 10123 10122 10120 10118 10117 10115 10114 10112 10111 10109 10107 10105 10103 10102 10100 10100 10098 10098 10097 10096 10095 10094 10093
10317 10314 10312 10308 10306 10303 10300 10297 10294 10292 10288 10285 10282 10279 10276 10273 10270 10266 10262 10258 10254 10251 10247 10243 10240 10236 10232 10228 10225 10222 10218 10215 10212 10208 10205 10202 10198 10195 10192 10188 10185 10182 10178 10174 10171 10168 10164 10162 10160 10158 10155 10153 10149 10146 10143 10140 10138 10135 10132 10129 10126 10123 10121 10118 10117 10116 10114 10113 10111 10110 10108 10107 10104 10102 10100 10098 10097 10096 10095 10095 10093 10093 10092 10091 10090 10088
10312 10309 10307 10304 10301 10298 10295 10292 10289 10286 10283 10280 10277 10274 10270 10267 10264 10261 10257 10253 10249 10245 10242 10238 10234 10230 10227 10223 10220 10217 10213 10210 10207 10203 10200 10197 10193 10190 10187 10183 10180 10177 10173 10169 10166 10163 10160 10157 10154 10153 10152 10149 10146 10142 10138 10136 10133 10131 10128 10125 10122 10119 10117 10114 10112 10111 10110 10108 10107 10105 10103 10102 10100 10098 10096 10094 10093 10092 10091 10090 10090 10089 10088 10087 10085 10085
10307 10305 10302 10299 10296 10293 10290 10287 10284 10281 10278 10275 10272 10269 10265 10262 10258 10255 10252 10248 10244 10240 10237 10233 10229 10225 10222 10218 10214 10211 10208 10205 10202 10198 10195 10192 10189 10185 10182 10179 10176 10172 10168 10164 10161 10158 10155 10152 10148 10146 10145 10145 10143 10139 10135 10132 10129 10126 10123 10120 10117 10115 10112 10110 10108 10107 10105 10103 10102 10101 10099 10097 10095 10093 10092 10090 10089 10088 10087 10087 10086 10085 10084 10083 10082 10080